TimeEST,TemperatureF,Dew PointF,Humidity,Sea Level PressureIn,VisibilityMPH,Wind Direction,Wind SpeedMPH,Gust SpeedMPH,PrecipitationIn,Events,Conditions,WindDirDegrees,DateUTC
12:53 AM,27.0,17.1,66,30.19,10.0,Calm,Calm,-,N/A,,Overcast,0,2013-02-19 05:53:00
1:53 AM,26.1,17.1,69,30.17,10.0,Calm,Calm,-,N/A,,Mostly Cloudy,0,2013-02-19 06:53:00
2:53 AM,30.0,15.1,54,30.16,10.0,Calm,Calm,-,N/A,,Mostly Cloudy,0,2013-02-19 07:53:00
3:53 AM,26.1,15.1,63,30.14,10.0,Calm,Calm,-,N/A,,Clear,0,2013-02-19 08:53:00
4:53 AM,23.0,17.1,78,30.14,10.0,Calm,Calm,-,N/A,,Clear,0,2013-02-19 09:53:00
5:53 AM,21.0,17.1,85,30.11,10.0,Calm,Calm,-,N/A,,Clear,0,2013-02-19 10:53:00
6:53 AM,19.9,15.1,81,30.09,10.0,Calm,Calm,-,N/A,,Clear,0,2013-02-19 11:53:00
7:53 AM,24.1,17.1,75,30.08,10.0,Calm,Calm,-,N/A,,Clear,0,2013-02-19 12:53:00
8:53 AM,34.0,21.0,59,30.06,10.0,South,3.5,-,N/A,,Clear,190,2013-02-19 13:53:00
9:53 AM,37.9,24.1,57,30.04,10.0,South,6.9,-,N/A,,Clear,170,2013-02-19 14:53:00
10:53 AM,39.9,26.1,58,30.00,10.0,SE,8.1,-,N/A,,Clear,140,2013-02-19 15:53:00
11:53 AM,43.0,28.0,56,29.96,10.0,Variable,3.5,-,N/A,,Clear,0,2013-02-19 16:53:00
1:51 PM,41.0,32.0,70,29.88,3.0,South,9.2,19.6,0.02,Rain,Rain,190,2013-02-19 18:51:00
2:53 PM,39.9,32.0,73,29.84,4.0,South,5.8,-,0.07,Rain,Light Rain,180,2013-02-19 19:53:00
3:53 PM,39.0,32.0,76,29.80,4.0,SSE,5.8,-,0.04,Rain,Light Rain,150,2013-02-19 20:53:00
4:13 PM,39.2,30.2,70,29.76,4.0,SE,6.9,-,0.01,Rain,Light Rain,140,2013-02-19 21:13:00
4:28 PM,39.2,32.0,75,29.74,3.0,SSE,6.9,-,0.01,Rain,Light Rain,150,2013-02-19 21:28:00
4:36 PM,39.2,32.0,75,29.74,4.0,SSE,4.6,-,0.01,Rain,Light Rain,150,2013-02-19 21:36:00
4:53 PM,39.9,32.0,73,29.74,8.0,Variable,3.5,-,0.01,Rain,Light Rain,0,2013-02-19 21:53:00
5:53 PM,41.0,32.0,70,29.73,4.0,South,5.8,-,0.04,Rain,Light Rain,190,2013-02-19 22:53:00
6:01 PM,42.8,32.0,66,29.71,5.0,SSW,5.8,-,0.01,Rain,Light Rain,200,2013-02-19 23:01:00
7:53 PM,41.0,32.0,70,29.68,10.0,SW,5.8,-,0.03,,Overcast,230,2013-02-20 00:53:00
8:05 PM,41.0,32.0,70,29.65,10.0,West,4.6,-,N/A,,Overcast,260,2013-02-20 01:05:00
8:25 PM,41.0,32.0,70,29.65,9.0,WSW,4.6,-,0.00,,Overcast,250,2013-02-20 01:25:00
8:53 PM,41.0,32.0,70,29.68,4.0,West,11.5,21.9,0.02,Rain,Light Rain,260,2013-02-20 01:53:00
9:14 PM,39.2,32.0,75,29.68,6.0,West,10.4,17.3,0.02,Rain,Light Rain,260,2013-02-20 02:14:00
9:53 PM,39.0,32.0,76,29.67,10.0,West,5.8,-,0.02,,Overcast,260,2013-02-20 02:53:00
10:53 PM,37.9,32.0,79,29.66,10.0,WSW,10.4,-,N/A,,Mostly Cloudy,250,2013-02-20 03:53:00
11:53 PM,37.0,28.0,70,29.66,10.0,West,11.5,21.9,0.01,,Clear,260,2013-02-20 04:53:00